STARLINK-1962

operational
NORAD ID: 47563 Int'l Des: 2021-009 Owner: SPXS Country: US Constellation: starlink
LEOCIRCULARSTARLINK_TYPE

关于 STARLINK-1962

正在加载描述...

实时位置

正在加载3D地球...

即将过境

高度历史

Altitude vs Time

uPlot chart will show altitude changes over time

两行轨道根数

1 47563U 21009R 25248.05756421 .00014734 00000-0 10065-2 0 9991
2 47563 53.0539 134.9578 0001579 109.9333 250.1826 15.06378021252814
Epoch: Sep 5, 2025 • Age: 18 hours

当前状态

高度 549.4 km
速度 7.59 km/s
星下点 -8.65°S, 36.79°E
发射日期 Feb 4, 2021
运行时间 4.5 years
类型 internet

技术详情

分类 Payload
质量 260.00 kg
干质量 248.00 kg
总质量 260.00 kg
长度 0.20 m
直径 2.80 m
跨度 9.00 m
形状 Box + pan
制造商 SPXS
平台类型 Starlink
阶段状态 In Orbit
所有者/国家 SPXS/US

大型星座

Loading constellations...